Time,TemperatureF,DewpointF,PressureIn,WindDirection,WindDirectionDegrees,WindSpeedMPH,WindSpeedGustMPH,Humidity,HourlyPrecipIn,Conditions,Clouds,dailyrainin,SoftwareType,DateUTC
2013-03-18 00:02:00,31.0,16.0,-100.00,NNE,19,9.0,-999.0,54,0.00,,,-99.99,,2013-03-18 08:02:00,
2013-03-18 00:12:00,31.0,16.0,-100.00,NNE,19,9.0,-999.0,54,0.00,,,-99.99,,2013-03-18 08:12:00,
2013-03-18 00:22:00,31.0,16.0,-100.00,NNE,19,9.0,-999.0,54,0.00,,,-99.99,,2013-03-18 08:22:00,
2013-03-18 00:30:00,30.0,18.0,-100.00,NNE,29,11.0,-999.0,60,0.00,,,-99.99,,2013-03-18 08:30:00,
2013-03-18 00:52:00,30.0,18.0,-100.00,NNE,29,11.0,-999.0,60,0.00,,,-99.99,,2013-03-18 08:52:00,
2013-03-18 01:02:00,30.0,18.0,-100.00,NNE,29,11.0,-999.0,60,0.00,,,-99.99,,2013-03-18 09:02:00,
2013-03-18 01:12:00,30.0,18.0,-100.00,NNE,29,11.0,-999.0,60,0.00,,,-99.99,,2013-03-18 09:12:00,
2013-03-18 01:22:00,30.0,18.0,-100.00,NNE,29,11.0,-999.0,60,0.00,,,-99.99,,2013-03-18 09:22:00,
2013-03-18 01:30:00,29.0,16.0,-100.00,NE,38,7.0,-999.0,59,0.00,,,-99.99,,2013-03-18 09:30:00,
2013-03-18 01:53:00,29.0,16.0,-100.00,NE,38,7.0,-999.0,59,0.00,,,-99.99,,2013-03-18 09:53:00,
2013-03-18 02:03:00,29.0,16.0,-100.00,NE,38,7.0,-999.0,59,0.00,,,-99.99,,2013-03-18 10:03:00,
2013-03-18 02:12:00,29.0,16.0,-100.00,NE,38,7.0,-999.0,59,0.00,,,-99.99,,2013-03-18 10:12:00,
2013-03-18 02:23:00,29.0,16.0,-100.00,NE,38,7.0,-999.0,59,0.00,,,-99.99,,2013-03-18 10:23:00,
2013-03-18 02:30:00,28.0,17.0,-100.00,NE,46,8.0,-999.0,63,0.00,,,-99.99,,2013-03-18 10:30:00,
2013-03-18 02:53:00,28.0,17.0,-100.00,NE,46,8.0,-999.0,63,0.00,,,-99.99,,2013-03-18 10:53:00,
2013-03-18 03:03:00,28.0,17.0,-100.00,NE,46,8.0,-999.0,63,0.00,,,-99.99,,2013-03-18 11:03:00,
2013-03-18 03:12:00,28.0,17.0,-100.00,NE,46,8.0,-999.0,63,0.00,,,-99.99,,2013-03-18 11:12:00,
2013-03-18 03:22:00,28.0,17.0,-100.00,NE,46,8.0,-999.0,63,0.00,,,-99.99,,2013-03-18 11:22:00,
2013-03-18 03:52:00,27.0,18.0,-100.00,East,92,6.0,-999.0,68,0.00,,,-99.99,,2013-03-18 11:52:00,
2013-03-18 04:02:00,27.0,18.0,-100.00,East,92,6.0,-999.0,68,0.00,,,-99.99,,2013-03-18 12:02:00,
2013-03-18 04:12:00,27.0,18.0,-100.00,East,92,6.0,-999.0,68,0.00,,,-99.99,,2013-03-18 12:12:00,
2013-03-18 04:22:00,27.0,18.0,-100.00,East,92,6.0,-999.0,68,0.00,,,-99.99,,2013-03-18 12:22:00,
2013-03-18 04:30:00,27.0,-99.9,-100.00,East,98,8.0,-999.0,68,0.00,,,-99.99,,2013-03-18 12:30:00,
2013-03-18 04:52:00,27.0,18.0,-100.00,East,98,8.0,-999.0,68,0.00,,,-99.99,,2013-03-18 12:52:00,
2013-03-18 05:52:00,27.0,17.0,-100.00,ENE,61,10.0,-999.0,65,0.00,,,-99.99,,2013-03-18 13:52:00,
2013-03-18 06:02:00,27.0,17.0,-100.00,ENE,61,10.0,-999.0,65,0.00,,,-99.99,,2013-03-18 14:02:00,
2013-03-18 06:12:00,27.0,17.0,-100.00,ENE,61,10.0,-999.0,65,0.00,,,-99.99,,2013-03-18 14:12:00,
2013-03-18 06:22:00,27.0,17.0,-100.00,ENE,61,10.0,-999.0,65,0.00,,,-99.99,,2013-03-18 14:22:00,
2013-03-18 06:52:00,26.0,18.0,-100.00,East,90,6.0,-999.0,69,0.00,,,-99.99,,2013-03-18 14:52:00,
2013-03-18 07:02:00,26.0,-99.9,-100.00,East,90,6.0,-999.0,69,0.00,,,-99.99,,2013-03-18 15:02:00,
2013-03-18 07:12:00,26.0,18.0,-100.00,East,90,6.0,-999.0,69,0.00,,,-99.99,,2013-03-18 15:12:00,
2013-03-18 07:22:00,26.0,18.0,-100.00,East,90,6.0,-999.0,69,0.00,,,-99.99,,2013-03-18 15:22:00,
2013-03-18 07:52:00,25.0,18.0,-100.00,ESE,105,6.0,-999.0,72,0.00,,,-99.99,,2013-03-18 15:52:00,
2013-03-18 08:03:00,25.0,-99.9,-100.00,ESE,105,6.0,-999.0,72,0.00,,,-99.99,,2013-03-18 16:03:00,
2013-03-18 08:12:00,25.0,18.0,-100.00,ESE,105,6.0,-999.0,72,0.00,,,-99.99,,2013-03-18 16:12:00,
2013-03-18 08:22:00,25.0,18.0,-100.00,ESE,105,6.0,-999.0,72,0.00,,,-99.99,,2013-03-18 16:22:00,
2013-03-18 08:30:00,26.0,17.0,-100.00,NE,56,9.0,-999.0,67,0.00,,,-99.99,,2013-03-18 16:30:00,
2013-03-18 08:52:00,26.0,17.0,-100.00,NE,56,9.0,-999.0,67,0.00,,,-99.99,,2013-03-18 16:52:00,
2013-03-18 09:30:00,27.0,17.0,-100.00,NE,41,9.0,-999.0,68,0.00,,,-99.99,,2013-03-18 17:30:00,
2013-03-18 09:52:00,27.0,17.0,-100.00,NE,41,9.0,-999.0,68,0.00,,,-99.99,,2013-03-18 17:52:00,
2013-03-18 10:13:00,27.0,-99.9,-100.00,NE,41,9.0,-999.0,68,0.00,,,-99.99,,2013-03-18 18:13:00,
2013-03-18 10:22:00,27.0,-99.9,-100.00,NE,41,9.0,-999.0,68,0.00,,,-99.99,,2013-03-18 18:22:00,
2013-03-18 10:30:00,27.0,14.0,-100.00,NE,50,8.0,-999.0,57,0.00,,,-99.99,,2013-03-18 18:30:00,
2013-03-18 10:52:00,27.0,14.0,-100.00,NE,50,8.0,-999.0,57,0.00,,,-99.99,,2013-03-18 18:52:00,
2013-03-18 11:02:00,27.0,14.0,-100.00,NE,50,8.0,-999.0,57,0.00,,,-99.99,,2013-03-18 19:02:00,
2013-03-18 11:12:00,27.0,14.0,-100.00,NE,50,8.0,-999.0,57,0.00,,,-99.99,,2013-03-18 19:12:00,
2013-03-18 11:22:00,27.0,14.0,-100.00,NE,50,8.0,-999.0,57,0.00,,,-99.99,,2013-03-18 19:22:00,
2013-03-18 11:30:00,28.0,13.0,-100.00,NE,51,7.0,-999.0,53,0.00,,,-99.99,,2013-03-18 19:30:00,
2013-03-18 11:52:00,28.0,13.0,-100.00,NE,51,7.0,-999.0,53,0.00,,,-99.99,,2013-03-18 19:52:00,
2013-03-18 12:02:00,28.0,13.0,-100.00,NE,51,7.0,-999.0,53,0.00,,,-99.99,,2013-03-18 20:02:00,
2013-03-18 12:12:00,28.0,13.0,-100.00,NE,51,7.0,-999.0,53,0.00,,,-99.99,,2013-03-18 20:12:00,
2013-03-18 12:22:00,28.0,13.0,-100.00,NE,51,7.0,-999.0,53,0.00,,,-99.99,,2013-03-18 20:22:00,
2013-03-18 12:30:00,29.0,14.0,-100.00,ENE,76,6.0,-999.0,54,0.00,,,-99.99,,2013-03-18 20:30:00,
2013-03-18 12:52:00,29.0,14.0,-100.00,ENE,76,6.0,-999.0,54,0.00,,,-99.99,,2013-03-18 20:52:00,
2013-03-18 13:02:00,29.0,14.0,-100.00,ENE,76,6.0,-999.0,54,0.00,,,-99.99,,2013-03-18 21:02:00,
2013-03-18 13:11:00,29.0,14.0,-100.00,ENE,76,6.0,-999.0,54,0.00,,,-99.99,,2013-03-18 21:11:00,
2013-03-18 13:22:00,29.0,14.0,-100.00,ENE,76,6.0,-999.0,54,0.00,,,-99.99,,2013-03-18 21:22:00,
2013-03-18 13:30:00,30.0,12.0,-100.00,ENE,61,5.0,-999.0,47,0.00,,,-99.99,,2013-03-18 21:30:00,
2013-03-18 13:53:00,30.0,12.0,-100.00,ENE,61,5.0,-999.0,47,0.00,,,-99.99,,2013-03-18 21:53:00,
2013-03-18 14:03:00,30.0,12.0,-100.00,ENE,61,5.0,-999.0,47,0.00,,,-99.99,,2013-03-18 22:03:00,
2013-03-18 14:12:00,30.0,12.0,-100.00,ENE,61,5.0,-999.0,47,0.00,,,-99.99,,2013-03-18 22:12:00,
2013-03-18 14:22:00,30.0,12.0,-100.00,ENE,61,5.0,-999.0,47,0.00,,,-99.99,,2013-03-18 22:22:00,
2013-03-18 14:30:00,31.0,10.0,-100.00,NE,42,11.0,-999.0,41,0.00,,,-99.99,,2013-03-18 22:30:00,
2013-03-18 14:52:00,31.0,10.0,-100.00,NE,42,11.0,-999.0,41,0.00,,,-99.99,,2013-03-18 22:52:00,
2013-03-18 15:02:00,31.0,10.0,-100.00,NE,42,11.0,-999.0,41,0.00,,,-99.99,,2013-03-18 23:02:00,
2013-03-18 15:12:00,31.0,10.0,-100.00,NE,42,11.0,-999.0,41,0.00,,,-99.99,,2013-03-18 23:12:00,
2013-03-18 15:22:00,31.0,10.0,-100.00,NE,42,11.0,-999.0,41,0.00,,,-99.99,,2013-03-18 23:22:00,
2013-03-18 15:30:00,31.0,8.0,-100.00,NE,46,15.0,-999.0,38,0.00,,,-99.99,,2013-03-18 23:30:00,
2013-03-18 15:53:00,31.0,8.0,-100.00,NE,46,15.0,-999.0,38,0.00,,,-99.99,,2013-03-18 23:53:00,
2013-03-18 16:02:00,31.0,8.0,-100.00,NE,46,15.0,-999.0,38,0.00,,,-99.99,,2013-03-19 00:02:00,
2013-03-18 16:12:00,31.0,8.0,-100.00,NE,46,15.0,-999.0,38,0.00,,,-99.99,,2013-03-19 00:12:00,
2013-03-18 16:22:00,31.0,8.0,-100.00,NE,46,15.0,-999.0,38,0.00,,,-99.99,,2013-03-19 00:22:00,
2013-03-18 16:30:00,32.0,9.0,-100.00,North,2,9.0,-999.0,39,0.00,,,-99.99,,2013-03-19 00:30:00,
2013-03-18 16:52:00,32.0,9.0,-100.00,North,2,9.0,-999.0,39,0.00,,,-99.99,,2013-03-19 00:52:00,
2013-03-18 17:02:00,32.0,9.0,-100.00,North,2,9.0,-999.0,39,0.00,,,-99.99,,2013-03-19 01:02:00,
2013-03-18 17:12:00,32.0,9.0,-100.00,North,2,9.0,-999.0,39,0.00,,,-99.99,,2013-03-19 01:12:00,
2013-03-18 17:22:00,32.0,9.0,-100.00,North,2,9.0,-999.0,39,0.00,,,-99.99,,2013-03-19 01:22:00,
2013-03-18 17:30:00,33.0,11.0,-100.00,WSW,243,4.0,-999.0,40,0.00,,,-99.99,,2013-03-19 01:30:00,
2013-03-18 17:52:00,33.0,11.0,-100.00,WSW,243,4.0,-999.0,40,0.00,,,-99.99,,2013-03-19 01:52:00,
2013-03-18 18:02:00,33.0,11.0,-100.00,WSW,243,4.0,-999.0,40,0.00,,,-99.99,,2013-03-19 02:02:00,
2013-03-18 18:22:00,33.0,11.0,-100.00,WSW,243,4.0,-999.0,40,0.00,,,-99.99,,2013-03-19 02:22:00,
2013-03-18 18:30:00,34.0,10.0,-100.00,SSW,192,2.0,-999.0,38,0.00,,,-99.99,,2013-03-19 02:30:00,
2013-03-18 18:52:00,34.0,10.0,-100.00,SSW,192,2.0,-999.0,38,0.00,,,-99.99,,2013-03-19 02:52:00,
2013-03-18 19:02:00,34.0,10.0,-100.00,SSW,192,2.0,-999.0,38,0.00,,,-99.99,,2013-03-19 03:02:00,
2013-03-18 19:12:00,34.0,10.0,-100.00,SSW,192,2.0,-999.0,38,0.00,,,-99.99,,2013-03-19 03:12:00,
2013-03-18 19:22:00,34.0,10.0,-100.00,SSW,192,2.0,-999.0,38,0.00,,,-99.99,,2013-03-19 03:22:00,
2013-03-18 19:30:00,31.0,13.0,-100.00,NNW,341,9.0,-999.0,47,0.00,,,-99.99,,2013-03-19 03:30:00,
2013-03-18 19:53:00,31.0,13.0,-100.00,NNW,341,9.0,-999.0,47,0.00,,,-99.99,,2013-03-19 03:53:00,
2013-03-18 20:03:00,31.0,13.0,-100.00,NNW,341,9.0,-999.0,47,0.00,,,-99.99,,2013-03-19 04:03:00,
2013-03-18 20:13:00,31.0,13.0,-100.00,NNW,341,9.0,-999.0,47,0.00,,,-99.99,,2013-03-19 04:13:00,
2013-03-18 20:22:00,31.0,13.0,-100.00,NNW,341,9.0,-999.0,47,0.00,,,-99.99,,2013-03-19 04:22:00,
2013-03-18 20:30:00,29.0,13.0,-100.00,NNW,342,5.0,-999.0,51,0.00,,,-99.99,,2013-03-19 04:30:00,
2013-03-18 20:52:00,29.0,13.0,-100.00,NNW,342,5.0,-999.0,51,0.00,,,-99.99,,2013-03-19 04:52:00,
2013-03-18 21:02:00,29.0,13.0,-100.00,NNW,342,5.0,-999.0,51,0.00,,,-99.99,,2013-03-19 05:02:00,
2013-03-18 21:11:00,29.0,13.0,-100.00,NNW,342,5.0,-999.0,51,0.00,,,-99.99,,2013-03-19 05:11:00,
2013-03-18 21:22:00,29.0,13.0,-100.00,NNW,342,5.0,-999.0,51,0.00,,,-99.99,,2013-03-19 05:22:00,
2013-03-18 21:30:00,28.0,14.0,-100.00,NNW,336,6.0,-999.0,54,0.00,,,-99.99,,2013-03-19 05:30:00,
2013-03-18 21:52:00,28.0,14.0,-100.00,NNW,336,6.0,-999.0,54,0.00,,,-99.99,,2013-03-19 05:52:00,
2013-03-18 22:02:00,28.0,14.0,-100.00,NNW,336,6.0,-999.0,54,0.00,,,-99.99,,2013-03-19 06:02:00,
2013-03-18 22:12:00,28.0,14.0,-100.00,NNW,336,6.0,-999.0,54,0.00,,,-99.99,,2013-03-19 06:12:00,
2013-03-18 22:22:00,28.0,14.0,-100.00,NNW,336,6.0,-999.0,54,0.00,,,-99.99,,2013-03-19 06:22:00,
2013-03-18 22:30:00,28.0,11.0,-100.00,North,356,6.0,-999.0,49,0.00,,,-99.99,,2013-03-19 06:30:00,
2013-03-18 22:52:00,28.0,11.0,-100.00,North,356,6.0,-999.0,49,0.00,,,-99.99,,2013-03-19 06:52:00,
2013-03-18 23:02:00,28.0,11.0,-100.00,North,356,6.0,-999.0,49,0.00,,,-99.99,,2013-03-19 07:02:00,
2013-03-18 23:12:00,28.0,11.0,-100.00,North,356,6.0,-999.0,49,0.00,,,-99.99,,2013-03-19 07:12:00,
2013-03-18 23:21:00,28.0,11.0,-100.00,North,356,6.0,-999.0,49,0.00,,,-99.99,,2013-03-19 07:21:00,
2013-03-18 23:30:00,28.0,14.0,-100.00,ENE,66,9.0,-999.0,54,0.00,,,-99.99,,2013-03-19 07:30:00,
2013-03-18 23:52:00,28.0,14.0,-100.00,ENE,66,9.0,-999.0,54,0.00,,,-99.99,,2013-03-19 07:52:00,